Lid_Strength_Index
0 0 5 7 13 13 13 12 9 9 9 6 5 7 7 7 8 12 2 1 0 0 -0 -0 -1 -1 -1 -1 -1 -1 -1 -1 -1 -1 -1 -1 -1 -1 -2 -2 -2 -1 -1 -1 -1 -1 -1 -1 -1
5 5 6 9 14 16 15 10 10 8 7 5 6 6 7 9 5 4 3 1 0 -0 -0 -0 -1 -1 -1 -1 -1 -1 -1 -1 -1 -1 -1 -1 -1 -1 -1 -2 -2 -1 -1 -1 -1 -1 -1 -1 -1
4 6 9 12 15 15 13 10 9 7 5 6 7 6 6 8 4 3 1 0 -0 0 -0 -0 -1 -1 -1 -1 -1 -1 -1 -1 -1 -1 -1 -1 -1 -1 -1 -1 -2 -1 -1 -1 -1 -1 -1 -2 -2
8 9 10 14 14 12 10 9 7 7 6 5 5 7 5 3 3 2 1 0 0 0 0 -0 -1 -1 -1 -1 -1 -1 -1 -1 -1 -1 -1 -1 -1 -1 -1 -1 -2 -2 -1 -1 -1 -1 -2 -2 -2
9 11 14 15 14 11 8 7 6 7 7 6 5 8 7 3 2 2 1 1 1 0 0 -0 -1 -1 -1 -1 -1 -1 -1 -1 -1 -1 -1 -1 -1 -1 -1 -1 -2 -2 -2 -1 -1 -1 -2 -2 -2
11 13 16 16 14 11 7 6 6 7 6 6 6 7 7 3 3 2 1 1 0 0 0 -0 -1 -1 -1 -1 -1 -1 -1 -1 -1 -1 -1 -1 -1 -1 -1 -1 -2 -2 -2 -2 -2 -2 -2 -2 -2
13 14 16 15 13 12 9 6 7 7 7 7 5 9 6 4 2 2 1 2 0 -0 0 0 -0 -1 -1 -1 -1 -1 -1 -1 -1 -1 -1 -1 -1 -1 -1 -1 -1 -1 -1 -2 -2 -2 -2 -2 -2
11 14 16 15 13 13 9 8 5 7 7 4 4 9 8 4 2 2 3 3 1 0 0 0 -0 -0 -0 -0 -1 -1 -1 -1 -1 -1 -1 -1 -1 -1 -1 -1 -1 -1 -1 -2 -1 -1 -1 -1 -1
11 15 17 14 13 12 9 10 7 4 5 5 5 5 4 2 2 3 3 3 1 1 1 0 0 0 0 -0 -1 -1 -1 -1 -2 -1 -1 -1 -0 -0 -1 -1 -1 -2 -2 -2 -2 -2 -1 -1 -1
12 15 14 12 11 10 10 10 11 6 6 7 6 4 3 3 3 3 4 4 3 2 1 0 0 0 0 -0 -0 -0 -0 -0 0 0 0 1 1 1 0 -1 -2 -2 -2 -2 -2 -1 -1 -1 0
12 12 11 10 9 9 9 8 10 8 8 7 7 5 4 4 4 4 3 3 3 2 1 1 1 0 0 0 0 0 0 0 0 0 1 3 3 5 1 1 -0 -0 -1 -0 -0 -1 -0 0 0
13 10 10 9 9 9 9 8 9 8 5 4 4 4 4 4 4 4 4 3 3 2 1 1 1 0 0 0 -0 0 1 1 3 6 5 3 3 4 4 4 4 4 4 3 4 3 4 3 3
12 10 9 9 9 10 8 7 10 10 4 4 4 4 4 4 4 3 3 2 2 2 2 1 1 1 0 1 3 3 3 6 6 3 2 3 2 5 5 5 4 4 2 3 3 2 2 2 2
10 10 9 9 10 9 10 9 9 9 5 5 4 5 4 4 4 4 3 3 2 3 3 4 4 6 4 8 8 8 7 6 2 1 1 1 2 3 2 2 1 2 2 2 2 2 2 2 1
9 12 10 9 11 10 9 10 10 8 4 6 6 5 6 5 5 4 3 3 4 6 7 7 7 7 7 4 4 3 2 2 2 2 2 2 2 3 3 2 2 2 2 2 2 2 1 1 1
11 13 15 11 10 10 10 12 7 7 5 6 7 6 6 6 4 3 3 4 6 7 8 7 6 6 6 4 4 2 3 2 2 2 2 1 2 3 3 3 3 2 3 2 1 1 2 2 1
14 15 15 12 10 9 10 13 9 7 5 6 6 6 6 8 4 3 3 4 6 7 7 6 6 6 4 4 3 3 2 1 1 2 3 2 1 2 3 3 3 2 3 2 2 2 2 2 2
15 15 14 14 11 10 11 13 11 9 6 6 6 7 7 6 5 3 4 6 6 8 7 6 5 4 4 3 2 2 2 2 2 3 3 2 2 2 3 3 3 3 3 3 3 3 3 2 3
12 12 13 12 10 10 10 11 10 9 9 8 10 7 7 7 6 4 5 6 6 6 5 4 3 3 1 2 3 3 3 3 3 3 2 3 2 3 3 4 4 3 4 4 3 3 3 3 2
12 13 13 11 10 10 11 11 9 9 9 9 9 9 8 9 5 4 5 5 5 5 4 4 2 2 2 2 2 3 3 3 3 3 3 2 3 3 3 4 4 4 4 4 4 4 4 4 3
12 13 13 12 10 10 11 12 10 9 8 7 7 7 7 7 6 4 4 4 4 4 3 3 2 2 1 2 1 2 2 3 3 3 3 3 2 3 3 3 4 4 4 4 5 4 4 5 4
12 9 10 10 12 14 11 16 13 10 8 8 7 7 6 7 5 4 4 4 4 3 3 2 1 2 2 2 3 3 4 4 4 3 2 3 2 3 2 3 4 4 4 4 4 3 4 5 6
11 8 10 10 13 15 14 16 14 12 11 9 8 8 7 6 6 5 4 3 3 3 2 2 1 1 2 1 3 4 5 4 3 3 2 3 3 3 2 3 3 4 4 4 4 4 4 4 5
8 10 12 13 14 17 13 15 15 14 11 10 9 7 7 6 6 5 3 3 3 2 2 2 2 2 1 1 3 4 4 3 3 4 4 4 3 3 2 2 3 4 4 3 3 4 4 4 5
10 14 17 18 18 17 13 15 15 11 10 9 9 8 7 6 6 5 4 3 3 3 2 2 2 2 1 1 2 3 4 2 4 4 4 3 3 4 4 4 4 4 4 3 3 4 4 4 4
12 13 17 19 19 16 12 15 12 9 9 8 8 7 6 7 6 5 4 3 3 3 2 2 2 2 2 2 2 3 3 3 4 3 3 3 3 4 4 4 4 4 3 3 3 4 4 4 4
11 14 12 15 15 17 15 12 10 9 8 8 8 7 7 8 8 6 4 3 3 3 3 2 2 2 2 2 3 2 2 2 3 2 3 3 3 3 3 3 4 4 4 4 4 4 4 4 4
11 10 14 16 19 20 16 14 13 11 9 9 8 9 8 8 7 7 4 3 3 3 2 2 2 2 2 2 2 2 2 3 3 3 3 3 3 2 3 3 3 4 3 4 4 4 3 3 3
12 13 12 13 15 17 19 15 11 11 9 9 9 9 8 8 8 7 6 5 3 3 3 2 2 2 2 2 2 2 3 3 3 3 3 3 3 2 3 3 3 3 4 3 3 3 3 3 3
10 13 12 17 17 15 16 15 9 8 8 8 8 8 8 8 7 7 6 5 4 3 3 3 2 2 2 2 2 2 3 3 3 3 3 3 3 2 2 2 3 2 2 3 3 3 3 3 3